Theta_e
301 301 301 301 302 302 303 303 304 304 304 305 305 305 306 306 306 307 308 310 311 312 312 313 314 314 315 316 317 317 317 317 317 317 316 314 311 310 309 307 305 303 303 303 303 303 302 303 303 306 313 317 319 320 320 318 320 323 323 321 320 321 322 322 325 326 325 326 327 325 324 325 325 323 323 324 324 325 326 325 325 324 324 324 324 325 325 325
300 300 300 301 301 302 302 303 303 304 304 305 305 305 305 306 306 306 307 308 309 310 311 312 312 313 314 315 316 317 317 317 317 317 315 314 312 311 310 309 306 304 304 303 303 303 302 303 302 309 318 320 321 321 320 319 320 323 323 321 320 320 323 323 324 326 326 326 327 327 324 325 326 325 323 324 325 325 326 326 325 325 325 324 324 325 325 325
299 299 299 300 300 301 302 302 303 303 304 304 304 305 305 305 306 306 306 307 307 308 309 310 311 312 313 314 315 316 316 317 317 315 314 313 312 312 312 312 310 306 305 304 303 303 302 303 302 310 320 320 321 321 320 320 320 323 323 320 320 321 322 323 324 326 326 326 328 327 323 323 324 324 324 325 326 325 326 327 326 326 326 325 324 325 325 326
298 298 298 299 300 300 301 301 302 303 303 304 304 304 305 305 305 306 306 307 307 307 308 309 310 311 312 313 314 315 316 316 315 313 313 313 312 313 312 313 314 310 306 304 304 302 302 303 301 311 320 319 322 322 320 321 320 322 322 320 321 322 320 321 323 324 325 325 327 326 323 324 323 323 324 325 326 325 326 327 327 327 327 326 325 326 326 326
298 298 298 299 299 300 300 301 301 302 302 303 304 304 304 304 305 305 306 306 307 307 307 307 308 309 311 312 313 314 315 315 314 313 314 314 313 314 312 312 314 313 310 306 304 303 302 302 304 313 319 318 322 321 321 322 320 321 321 321 322 321 319 320 322 322 324 324 325 325 324 325 324 323 324 325 326 326 327 327 326 327 327 326 325 326 326 326
298 298 298 298 299 300 300 300 301 301 302 302 303 304 304 304 304 305 305 305 306 307 307 307 307 307 309 311 312 313 315 315 314 315 316 315 315 314 312 313 314 315 314 309 306 304 304 307 309 315 317 317 320 319 320 322 320 320 320 323 323 321 321 321 322 322 323 323 324 325 324 325 325 325 325 324 326 327 327 326 326 326 326 326 325 326 326 327
297 297 298 298 298 299 300 300 301 301 301 302 303 303 304 304 304 304 305 305 305 306 307 307 307 307 308 310 311 312 314 316 315 315 316 316 316 315 313 313 313 315 316 313 310 305 307 313 313 315 316 315 318 319 320 322 321 320 320 322 322 321 322 321 322 323 323 323 324 324 323 324 325 325 324 324 326 326 326 326 326 326 325 325 326 327 327 327
296 297 297 298 298 299 299 300 300 301 301 302 302 303 303 304 304 304 305 305 305 305 306 307 307 307 307 309 310 313 314 315 315 314 316 316 316 316 315 314 313 314 315 316 313 307 309 316 317 316 315 313 317 319 320 321 321 321 320 321 321 321 322 322 322 322 322 322 322 322 323 325 325 323 323 324 326 326 326 326 326 326 326 326 326 327 327 327
296 296 297 297 298 298 299 299 300 300 301 301 302 302 303 304 304 304 304 305 305 305 305 306 307 307 307 308 310 313 314 314 314 314 315 315 315 315 315 314 314 314 314 316 315 310 311 317 317 316 316 316 317 319 321 319 318 320 321 321 321 321 321 321 322 322 322 322 321 322 324 325 323 322 323 324 325 326 326 326 326 326 326 326 326 327 327 327
296 296 296 297 297 298 298 299 299 300 301 301 302 302 302 303 304 304 305 305 305 305 305 306 306 307 307 308 310 312 312 312 313 313 313 313 314 314 313 312 313 314 314 315 315 312 311 315 316 316 318 320 319 319 321 319 317 320 321 321 322 321 321 320 321 321 321 321 321 322 324 324 322 321 324 324 325 325 325 326 326 326 326 326 326 326 327 327
296 296 296 296 297 297 297 298 299 299 300 301 301 301 302 302 303 304 304 304 305 305 305 306 306 307 308 308 310 311 311 311 311 312 313 314 314 315 314 312 312 314 316 316 315 313 311 312 317 318 318 320 319 320 321 320 319 320 320 321 321 321 321 320 320 320 320 321 321 321 322 323 321 320 323 324 324 324 324 325 325 325 325 326 326 326 326 326
296 297 297 297 297 297 297 297 298 298 299 300 300 301 301 302 302 303 304 304 305 305 305 306 307 308 308 308 309 310 310 312 312 313 314 314 315 315 315 312 311 313 315 315 314 314 311 311 317 320 318 318 318 319 320 320 320 319 319 320 321 321 321 321 321 320 320 322 321 320 321 322 321 321 323 323 322 322 323 323 324 324 325 325 325 326 326 326
297 297 297 297 297 297 297 297 297 298 299 300 300 300 301 301 302 302 303 304 304 305 305 305 306 307 308 308 309 308 309 310 312 313 314 314 314 315 315 314 312 312 312 312 312 312 311 310 317 321 319 317 318 318 318 319 319 319 320 320 320 320 320 321 322 320 320 321 321 321 321 320 321 323 323 323 322 322 322 322 323 323 324 325 325 325 326 326
298 297 297 297 297 297 297 297 297 298 298 299 299 300 300 301 301 302 302 303 304 305 305 305 306 307 308 308 308 308 308 309 311 312 312 313 313 314 315 314 315 314 312 311 310 311 312 310 314 319 319 319 319 319 318 318 318 319 320 319 319 320 319 319 320 320 320 321 321 321 320 320 320 322 322 322 322 322 322 322 322 323 323 323 324 324 325 325
298 297 296 296 297 297 297 297 297 298 298 299 299 299 300 300 301 301 302 303 303 304 305 305 305 306 308 308 307 307 307 308 310 311 312 312 312 314 315 315 315 315 313 311 310 312 313 311 312 316 319 319 320 319 318 318 318 318 318 319 319 318 318 317 317 320 320 320 320 320 320 320 320 321 321 320 320 321 322 322 322 322 322 322 322 323 324 324
299 298 297 297 297 297 297 297 298 298 298 299 299 299 300 300 300 301 301 302 303 304 305 305 305 306 307 308 307 307 307 307 308 309 311 312 314 315 315 315 315 315 314 312 312 313 313 313 314 316 318 318 319 319 318 318 318 318 318 319 321 319 317 317 316 318 320 319 319 320 320 319 319 319 319 318 318 319 321 321 322 322 322 322 321 321 322 322
300 299 298 297 297 297 297 297 298 298 298 298 299 299 299 299 300 300 301 302 302 303 304 305 305 306 307 308 307 308 308 308 307 308 309 311 313 315 315 315 315 315 315 314 314 314 313 315 316 315 317 317 317 318 317 316 318 319 318 318 320 318 318 317 315 315 317 317 319 319 319 319 318 318 318 318 317 318 319 320 321 322 322 322 321 321 321 321
300 299 298 298 297 297 297 297 298 298 298 298 299 298 298 298 299 300 300 301 302 303 303 304 305 306 308 308 308 309 309 308 308 308 309 310 311 312 313 314 314 315 316 316 317 316 314 316 317 314 316 316 316 317 315 314 316 319 319 318 317 317 317 317 315 314 314 316 318 319 319 319 319 319 320 319 318 318 319 320 320 320 320 320 320 320 320 321
299 299 299 298 298 298 297 297 298 298 298 298 298 298 298 298 298 299 300 301 302 303 304 304 305 306 308 308 308 308 308 308 309 309 309 310 311 311 312 313 314 315 317 316 317 317 316 317 317 315 315 315 315 316 314 312 313 316 319 318 316 316 316 316 315 313 313 315 317 318 319 319 318 319 319 320 319 318 319 319 319 319 319 319 319 319 320 320
299 299 299 298 298 298 298 298 298 298 298 298 299 298 298 299 299 300 302 302 303 303 304 305 305 306 306 307 307 308 308 308 310 311 311 310 312 313 313 313 314 315 316 316 316 317 317 316 316 316 315 315 314 315 314 312 311 313 317 317 316 315 315 314 314 313 313 314 316 317 317 318 318 318 318 320 319 318 318 318 319 319 319 319 319 319 319 319
299 299 299 298 298 298 298 298 298 298 298 298 298 298 299 300 300 301 302 302 302 302 303 304 304 305 305 306 307 307 308 309 309 310 311 311 312 313 314 314 315 316 316 316 316 317 317 316 315 316 315 314 314 315 315 313 311 312 314 315 315 314 314 313 313 313 313 314 315 315 315 316 316 316 317 319 318 318 318 318 318 318 318 319 319 319 317 316
298 299 299 298 298 298 298 298 298 298 298 298 298 298 298 299 299 299 301 301 301 301 302 302 303 304 304 304 305 306 308 308 308 309 310 311 313 314 314 314 314 315 315 316 316 316 317 316 314 315 315 313 314 315 315 314 312 311 312 314 314 314 314 313 312 313 312 313 314 314 314 314 314 315 315 316 316 317 317 317 318 318 318 318 318 318 317 315
299 299 298 298 298 298 298 298 298 298 298 298 297 297 297 298 299 299 300 300 301 301 301 301 302 303 303 304 304 305 307 307 308 309 309 310 312 313 314 315 314 314 316 316 315 316 316 315 314 315 314 313 313 314 315 315 314 312 312 312 313 313 313 311 311 311 312 313 313 314 314 313 313 313 313 314 315 316 316 316 316 317 317 316 315 316 316 316
299 299 299 299 298 298 299 298 298 298 297 297 297 297 298 298 299 299 300 300 301 301 301 301 301 302 302 303 303 304 306 307 308 308 308 309 312 312 313 314 314 314 315 315 315 315 315 314 314 314 313 312 313 314 315 315 315 314 314 313 312 312 312 311 311 310 311 312 312 313 312 311 312 313 312 313 314 314 314 315 315 315 314 313 313 313 313 313
299 299 299 299 299 299 298 298 298 298 297 297 297 298 298 299 299 299 300 300 300 301 302 302 303 302 301 302 304 304 305 306 307 307 308 308 310 312 312 313 314 314 314 314 315 315 314 314 314 313 313 313 313 314 315 315 314 315 315 315 314 312 311 312 312 311 311 310 311 311 308 307 311 312 311 311 312 312 312 313 313 313 313 313 312 311 309 309
300 300 299 299 299 299 298 298 298 298 297 297 297 298 298 299 299 299 299 299 299 301 303 303 303 303 302 303 304 305 306 306 305 305 306 307 309 311 311 312 313 313 313 314 315 314 314 314 313 313 313 313 313 314 315 315 314 314 315 315 315 313 312 313 313 312 310 310 310 310 308 308 310 311 310 310 310 310 311 311 311 312 313 313 312 310 309 309
300 300 299 299 299 299 299 299 298 298 298 297 298 298 297 298 299 299 299 299 299 301 303 304 304 303 303 304 304 304 306 306 305 304 305 306 308 311 311 312 313 313 313 315 315 315 314 314 313 313 314 314 313 313 314 314 313 314 315 315 315 314 314 313 313 311 311 312 311 311 311 311 311 311 310 310 310 310 311 311 311 313 313 312 312 311 310 311
300 299 299 299 299 299 299 299 298 298 298 298 297 297 298 298 299 299 298 298 300 301 302 304 305 303 303 305 305 305 306 306 306 305 304 305 308 310 310 311 311 312 313 315 316 315 314 314 313 313 314 314 313 312 314 314 313 314 314 315 315 315 315 314 313 313 313 314 312 312 313 311 310 312 311 310 310 310 311 311 312 313 313 312 311 311 311 310
300 299 299 299 299 299 299 299 298 298 298 297 297 297 298 298 299 299 298 299 300 301 302 303 304 303 304 306 305 305 305 306 307 308 306 306 308 309 310 311 311 312 313 314 315 314 313 314 314 313 313 313 312 313 314 314 313 313 313 314 315 315 315 315 314 315 315 315 313 312 312 309 308 311 311 311 311 310 311 311 311 313 313 312 311 311 311 310
300 299 299 299 299 299 299 299 299 298 298 297 297 298 298 298 299 299 299 299 298 300 302 303 305 304 305 307 306 306 305 306 308 308 308 308 308 308 310 310 311 311 312 312 313 313 313 313 313 313 313 313 312 313 314 314 314 313 313 315 315 314 314 314 315 315 315 315 313 312 312 309 308 310 311 311 311 311 311 311 311 313 313 313 311 311 311 311
300 300 300 300 299 299 299 299 298 298 298 297 297 298 298 298 298 298 299 298 297 300 302 303 305 305 305 306 306 306 305 305 307 307 308 309 309 309 309 309 310 309 310 311 311 312 312 313 314 314 313 314 314 313 314 315 314 313 314 314 314 314 314 314 314 315 314 313 313 312 312 310 309 309 309 311 311 311 310 310 310 312 313 312 311 310 311 311
300 300 300 300 300 299 299 299 298 298 298 297 297 298 298 297 297 298 299 297 297 300 301 301 304 304 305 306 306 306 305 305 306 307 309 309 308 310 309 308 309 309 309 311 311 311 313 313 313 313 313 314 314 313 314 314 314 313 313 313 312 312 314 314 314 316 314 312 312 312 311 311 310 310 309 310 310 311 311 311 311 311 313 312 310 311 311 311
300 300 300 300 300 300 299 299 299 299 299 298 297 298 297 296 297 298 298 297 298 300 300 301 303 303 303 303 304 306 305 305 306 306 307 308 308 309 309 308 308 308 309 310 311 312 313 314 313 312 313 313 313 314 315 315 314 313 313 313 312 312 313 314 314 314 314 313 312 311 311 312 311 310 311 311 311 311 311 312 312 311 312 312 311 311 312 312
300 300 300 300 300 300 299 299 299 299 299 298 297 297 297 296 297 297 298 298 298 300 300 301 302 302 302 301 304 306 305 305 306 305 307 308 307 308 308 308 308 308 308 309 310 311 312 314 314 312 314 314 313 314 315 314 314 313 313 313 313 312 313 313 313 313 313 313 313 312 312 312 310 310 312 312 312 312 312 312 311 311 311 311 311 311 312 312
300 300 300 300 300 300 299 299 300 299 299 298 297 297 296 296 296 296 297 297 299 300 300 301 301 301 302 302 304 304 303 304 306 306 306 307 307 308 308 308 308 308 308 309 310 310 311 313 314 312 314 314 313 313 314 314 314 314 313 314 314 312 312 312 312 311 311 311 312 313 313 312 311 312 312 312 312 312 312 311 311 311 311 311 312 312 312 312
300 300 300 300 300 300 300 300 299 300 299 298 297 297 297 296 295 296 298 299 300 301 301 301 301 300 301 302 303 304 303 303 305 305 306 307 306 307 308 308 308 308 308 308 309 310 310 312 313 313 313 314 313 314 313 314 315 315 315 315 313 312 312 312 311 310 310 311 312 314 314 312 312 313 312 312 313 313 312 311 312 312 312 312 312 312 312 312
299 299 300 300 300 301 300 300 299 300 299 298 298 298 297 296 296 297 299 300 300 301 300 300 300 300 301 302 303 304 304 303 304 305 306 306 306 307 307 308 308 309 308 308 308 309 309 311 312 313 313 313 314 314 313 313 314 316 316 315 312 312 313 312 312 311 311 312 312 313 313 312 312 313 312 312 313 313 313 313 313 312 312 312 312 312 312 312
299 299 300 300 300 301 301 300 300 300 299 298 298 298 297 296 296 296 299 299 299 300 300 299 300 301 301 301 302 303 304 303 304 305 306 306 307 307 307 307 308 309 309 309 309 308 309 309 310 312 313 313 313 314 313 314 314 313 314 315 314 314 315 313 313 313 312 312 313 312 312 312 312 313 311 311 312 313 313 313 313 313 313 313 313 313 313 312
299 299 299 300 300 301 301 301 300 299 299 299 299 299 298 296 296 296 297 298 299 299 299 299 300 300 300 301 301 302 303 303 304 304 304 305 306 307 307 307 307 308 309 309 309 308 308 308 309 311 312 312 312 312 313 315 313 310 311 315 315 314 315 314 313 313 313 313 313 313 312 312 313 312 311 312 312 312 312 312 313 313 314 314 313 313 313 313
298 299 300 300 300 300 301 301 300 299 298 299 299 299 298 297 297 297 297 297 298 298 298 298 299 299 299 300 300 301 302 302 303 303 303 305 306 306 307 307 307 307 308 309 309 308 308 308 308 309 309 310 311 311 312 314 314 311 312 315 316 314 313 313 313 313 313 313 313 313 313 312 312 312 312 312 311 312 312 312 313 314 314 314 313 313 313 313
298 299 299 299 299 300 301 299 298 298 298 299 299 299 298 298 298 298 297 297 298 298 298 298 298 299 299 299 299 300 301 302 302 302 302 304 305 305 305 305 305 306 308 309 309 309 309 308 308 308 308 309 311 311 311 313 315 314 313 314 315 314 313 314 314 314 314 313 313 312 312 312 311 311 311 311 311 311 312 312 314 315 315 313 313 313 313 313
298 299 299 298 298 299 300 298 298 298 299 299 299 299 298 298 298 298 298 298 298 297 298 298 298 298 299 298 299 300 300 301 301 302 302 303 304 305 305 304 303 304 306 308 309 309 308 308 308 309 308 309 310 310 309 310 312 311 311 313 314 314 314 314 314 314 314 313 313 312 313 313 311 310 311 311 311 311 312 313 313 314 314 313 312 313 313 312
298 298 298 298 298 299 299 299 298 298 299 299 299 299 298 298 298 297 297 298 298 298 297 298 298 298 298 299 299 300 300 300 300 300 301 301 302 303 305 304 304 305 305 306 308 308 308 308 308 309 308 308 309 309 307 307 308 309 309 310 313 314 314 313 313 313 314 314 313 313 313 313 311 311 312 311 311 311 311 311 312 313 312 311 312 312 312 312
297 297 298 298 299 299 299 299 299 299 299 299 299 299 298 298 298 297 297 297 298 298 298 298 298 298 299 299 299 300 300 299 300 300 300 301 302 302 303 304 305 305 305 306 307 307 308 308 309 308 309 309 309 309 308 307 306 307 309 310 311 312 314 314 312 311 312 313 313 313 314 313 311 311 311 310 310 310 309 309 310 311 311 311 311 312 312 312
297 298 298 298 299 299 299 299 299 299 299 299 299 299 298 298 298 297 297 297 298 299 298 298 299 299 299 299 299 299 300 299 299 300 301 302 302 303 303 304 305 305 305 305 305 305 306 308 308 308 309 308 308 309 309 308 307 307 308 309 310 311 312 313 312 311 312 313 313 313 313 312 311 310 308 308 309 309 309 309 309 309 311 311 311 311 311 311
297 298 298 298 298 298 298 299 299 299 299 299 299 299 299 298 298 297 297 298 298 298 298 298 299 299 299 299 299 299 300 300 299 300 301 301 302 303 303 303 304 304 304 305 305 304 304 306 308 308 308 307 308 308 309 309 309 309 308 308 309 310 310 311 311 312 312 312 313 312 312 312 312 310 309 309 309 309 309 309 309 308 310 311 311 311 311 311
297 297 298 298 298 298 298 298 299 299 299 299 299 300 299 299 299 298 297 298 298 298 298 298 298 298 298 298 298 298 299 300 300 299 300 300 301 302 302 302 303 303 304 304 304 304 304 305 306 307 308 308 308 308 308 308 309 310 310 309 309 309 311 311 311 312 312 312 313 312 311 312 312 311 311 310 309 310 310 310 310 309 309 310 310 310 310 310
297 297 298 298 298 298 298 298 299 299 299 299 299 299 299 299 299 298 297 297 298 298 298 298 298 298 298 298 298 298 298 299 299 299 300 300 301 301 301 302 302 303 303 304 304 304 304 305 305 306 306 307 307 307 307 307 308 308 309 310 309 310 311 311 311 311 311 312 312 311 311 313 311 310 311 310 310 310 310 310 310 309 308 309 309 310 310 310
296 296 297 297 297 297 298 297 298 298 298 299 299 299 299 299 299 299 298 297 297 297 297 298 298 298 298 298 298 298 298 299 299 299 299 300 300 300 300 301 301 302 303 303 304 304 304 304 305 305 306 306 306 306 306 306 307 307 308 308 309 309 310 311 311 311 311 311 311 312 312 312 311 311 311 311 311 311 310 310 309 308 309 309 309 310 310 310
296 295 296 296 296 297 297 297 297 298 298 299 299 299 299 299 300 300 299 298 297 297 297 297 298 298 298 299 298 298 298 298 298 298 299 300 300 300 300 300 301 302 302 302 302 302 304 305 305 305 305 305 306 306 306 306 306 306 306 307 307 308 309 310 309 310 310 310 310 311 311 310 310 310 311 311 311 310 310 310 309 309 310 310 310 310 310 311
294 294 294 295 296 296 297 297 297 297 298 298 299 299 300 300 300 300 300 299 298 298 298 298 298 298 298 298 298 298 299 299 299 298 299 299 299 300 300 300 301 301 301 302 301 301 302 304 304 304 304 304 305 306 306 306 306 305 306 306 307 307 307 308 308 308 309 310 309 310 309 309 310 310 310 311 311 310 309 309 309 310 310 310 310 310 310 311
293 293 293 294 295 296 296 297 297 297 298 298 299 299 300 300 300 300 300 300 299 299 298 299 298 298 298 298 298 299 299 299 299 299 298 298 299 300 300 300 301 301 301 302 302 300 301 302 302 303 303 304 304 305 305 305 305 305 305 305 305 305 306 306 307 307 308 309 309 310 310 310 309 309 309 310 310 310 310 309 309 309 309 310 310 310 310 310
Wind_Speed
16 17 18 18 17 16 16 16 16 16 15 16 16 17 16 16 17 18 20 21 23 23 22 21 21 19 18 17 17 18 19 20 21 21 22 19 16 16 16 16 16 16 15 13 13 10 8 9 8 8 7 6 7 7 8 9 9 6 4 7 7 7 8 7 9 7 2 4 7 10 11 11 7 10 11 8 10 9 8 12 13 13 14 13 9 6 6 8
16 16 17 18 18 18 17 17 17 17 17 17 16 17 17 17 17 18 19 19 21 23 23 23 22 21 19 18 17 18 20 21 22 23 20 16 12 12 13 14 14 14 13 13 13 10 7 7 7 5 6 6 7 7 8 8 10 9 4 6 8 7 6 5 7 6 3 4 5 8 9 11 7 9 12 9 9 11 9 10 12 12 13 15 13 10 8 9
16 16 17 18 18 18 18 18 18 18 18 18 18 18 17 18 17 17 18 19 20 21 22 23 23 22 20 19 18 19 20 21 24 21 13 7 4 6 10 11 11 12 11 11 12 11 9 7 5 4 6 7 6 7 8 8 10 9 6 7 8 6 4 5 7 7 5 4 2 5 7 9 6 7 11 9 9 11 12 11 11 13 15 16 15 12 11 10
16 16 17 18 18 18 18 18 18 18 18 18 18 18 18 19 18 18 18 18 19 19 21 22 22 22 20 19 18 18 19 19 17 11 3 3 5 9 11 11 11 9 9 9 10 11 9 7 5 3 7 7 6 7 7 9 8 6 7 8 4 4 5 8 9 9 8 6 3 3 5 7 6 9 10 9 8 9 13 15 14 15 16 16 15 13 13 12
16 16 17 17 18 18 18 18 19 19 18 18 18 18 19 19 19 19 18 18 18 18 19 20 21 20 20 19 18 17 15 10 4 3 6 8 6 15 13 11 11 8 7 7 8 8 8 7 4 4 6 6 6 6 7 10 8 4 9 8 2 3 5 4 7 10 10 8 4 3 4 5 6 10 10 11 11 8 13 17 18 17 14 14 15 13 14 14
18 17 17 17 17 18 18 18 18 19 19 19 18 18 18 19 19 19 19 18 18 18 18 19 20 20 19 19 19 17 11 5 3 6 7 6 7 17 12 9 10 9 6 5 5 6 6 5 5 5 5 5 7 8 6 8 9 7 9 6 1 4 5 2 3 9 9 7 6 5 4 4 5 8 9 13 13 6 10 17 19 19 15 14 15 15 15 15
19 18 18 17 17 17 18 19 18 19 19 19 18 18 18 19 19 19 19 18 18 18 18 18 18 19 19 19 20 18 15 16 8 5 5 7 16 18 9 7 10 11 7 4 4 5 5 5 6 6 6 4 6 9 5 5 9 9 7 4 3 6 7 5 3 6 9 7 6 4 4 5 7 7 6 12 15 10 9 12 14 17 17 16 16 17 17 16
19 19 19 18 17 17 18 18 19 19 19 18 18 18 18 18 18 19 19 18 18 18 18 17 17 18 18 19 19 17 20 27 21 15 15 19 23 20 14 13 11 10 7 5 3 5 5 6 8 6 6 4 4 7 5 4 8 11 10 4 2 5 8 9 6 6 8 7 6 5 7 8 7 6 5 10 15 14 13 11 11 13 16 18 17 17 17 16
19 19 19 19 18 18 18 18 18 19 19 18 18 18 18 19 19 18 18 19 18 17 17 16 17 17 18 20 18 16 21 25 23 22 20 19 17 15 14 15 12 7 5 5 4 5 6 6 8 7 5 3 5 5 5 7 6 9 12 6 4 5 4 8 9 7 7 7 6 7 10 10 7 7 9 15 18 16 15 14 12 13 14 17 17 18 18 17
18 18 19 19 19 19 18 18 18 19 19 19 19 19 19 19 19 19 19 18 18 18 17 16 16 16 17 19 16 15 19 16 12 12 10 9 7 7 7 8 9 6 3 5 5 4 6 7 8 8 4 2 6 5 5 7 3 1 6 7 8 8 4 5 7 7 7 7 7 8 11 10 6 6 8 13 19 20 19 19 17 16 15 16 17 18 18 17
18 18 18 19 19 19 19 19 18 18 19 19 19 19 20 19 19 20 19 18 18 17 17 16 15 16 17 19 18 17 16 10 7 8 5 5 6 7 8 6 6 8 6 5 5 4 5 7 7 8 4 2 7 5 5 7 3 1 2 4 7 8 7 7 6 5 6 6 8 7 11 12 5 7 12 10 14 20 20 20 22 21 19 18 18 18 19 19
18 18 18 19 19 19 20 20 19 19 19 19 19 20 20 20 20 20 19 19 19 18 18 17 16 17 18 22 27 28 23 16 12 11 10 8 9 11 9 6 3 6 8 8 7 5 3 8 9 8 4 2 5 4 5 7 4 1 2 5 5 5 9 13 10 6 6 6 5 3 9 15 11 14 19 14 14 18 18 18 20 22 23 22 21 20 20 20
19 18 18 19 19 19 19 20 20 19 19 19 19 20 20 21 21 20 20 19 19 18 18 18 18 18 18 24 29 28 26 24 21 18 15 14 13 12 8 5 3 4 7 8 8 6 4 8 11 9 5 3 3 1 1 3 3 3 3 5 4 5 8 11 10 6 7 8 7 5 8 13 13 19 22 19 20 20 20 20 18 19 22 23 24 25 25 24
20 19 19 19 19 19 19 19 20 20 19 19 20 20 20 21 21 21 20 19 19 18 18 19 19 18 21 27 27 24 25 24 25 25 25 24 20 14 11 10 8 8 7 7 8 7 6 8 12 10 7 5 2 1 1 2 3 4 3 3 5 7 4 6 8 8 10 10 11 10 10 11 9 12 15 17 22 22 22 25 22 20 21 23 24 24 26 27
20 20 20 19 19 19 19 19 19 20 20 19 20 20 21 21 22 22 20 20 18 18 20 20 20 18 20 26 27 26 26 25 26 26 25 27 25 18 12 12 11 9 8 7 7 8 7 9 11 8 7 7 4 3 4 2 3 4 4 4 6 7 3 4 6 11 13 8 13 14 9 10 11 11 9 11 16 19 22 24 23 22 21 24 27 26 27 28
22 21 20 20 19 19 19 19 19 19 19 19 20 20 21 21 22 22 21 21 19 18 19 19 20 18 16 17 20 22 23 26 29 27 24 23 20 17 13 11 9 7 7 7 7 7 8 9 9 7 6 6 6 5 4 4 4 5 6 5 5 6 5 3 4 10 12 4 11 16 9 7 7 7 7 9 13 16 18 20 21 22 21 22 26 29 31 31
22 21 20 20 19 19 19 18 18 18 19 19 20 20 21 21 21 21 21 20 19 19 18 18 18 17 16 14 14 14 16 21 25 25 27 26 21 16 15 14 11 10 9 7 7 6 9 10 7 6 5 5 7 6 5 7 7 6 5 5 4 7 6 4 3 3 7 6 9 15 14 13 9 4 4 5 8 12 14 17 17 18 20 22 25 29 31 32
21 20 20 20 19 19 18 18 18 18 18 19 20 20 21 20 20 21 21 19 19 18 17 18 15 11 13 15 14 14 14 15 18 21 24 26 26 23 21 19 15 13 10 8 8 9 10 9 7 5 5 7 7 8 9 7 7 9 8 6 6 7 7 6 3 2 4 8 10 13 13 17 17 13 11 9 7 10 12 15 14 14 17 21 24 26 29 30
19 20 20 19 18 18 18 18 17 17 18 19 19 20 21 20 19 19 19 17 15 12 9 11 15 10 7 6 7 12 17 16 13 16 20 22 22 22 24 24 19 16 12 8 9 12 11 7 7 7 7 11 11 14 13 2 3 10 9 7 7 6 7 6 2 2 3 6 10 14 14 14 18 18 17 16 13 12 13 15 15 15 17 20 22 26 28 30
18 19 19 19 18 18 18 17 16 17 18 18 19 20 17 14 11 11 12 13 16 18 16 13 17 21 18 12 7 6 10 16 14 12 16 18 18 18 21 22 18 16 13 9 8 12 13 7 8 11 11 13 15 16 11 2 2 5 6 6 6 6 6 4 2 2 2 5 8 11 12 14 17 18 17 16 12 10 13 15 18 21 21 21 22 26 31 33
18 18 18 18 17 17 17 16 16 16 17 17 18 17 12 9 8 8 9 12 18 20 23 24 23 26 27 24 18 11 9 8 13 13 13 15 16 16 18 19 15 12 14 14 9 8 12 11 13 15 11 9 11 12 9 4 1 2 5 7 7 8 5 1 2 2 2 4 6 6 9 13 15 18 19 15 10 10 14 16 19 23 23 22 21 25 33 38
18 17 17 17 16 16 16 15 16 16 17 17 16 15 14 14 13 13 11 13 21 22 21 24 26 28 30 28 25 21 15 11 13 15 14 15 17 15 16 17 13 10 13 13 9 7 11 14 16 15 9 6 8 10 11 10 7 5 5 6 7 6 3 1 3 2 2 4 4 4 8 12 14 16 19 18 14 13 18 21 22 22 22 22 22 24 30 35
18 17 16 16 16 15 16 16 16 16 17 16 16 15 16 16 14 15 13 10 17 22 23 24 25 28 29 29 28 25 19 14 14 17 17 16 18 17 16 14 13 13 12 12 13 11 10 11 14 14 9 8 9 11 12 10 9 8 7 7 6 4 3 3 3 2 3 5 5 5 8 10 12 14 17 23 23 18 20 24 24 23 24 28 31 28 26 30
18 17 16 15 15 15 16 17 16 16 16 15 16 14 13 15 13 14 13 9 11 16 23 27 27 29 29 26 27 27 24 18 14 17 20 20 19 16 15 14 14 13 12 16 18 16 13 6 5 13 12 11 12 11 12 9 8 10 10 9 6 4 4 1 1 1 3 5 5 5 8 10 12 14 14 17 20 19 19 20 21 24 29 34 38 37 35 37
18 16 16 15 14 15 16 17 16 15 15 14 13 10 9 12 11 12 9 6 7 9 15 18 20 28 31 25 22 23 23 22 22 20 19 21 21 14 11 13 12 12 16 20 18 16 18 9 7 11 12 13 14 11 13 11 6 9 11 13 7 4 3 2 3 1 2 4 4 3 8 8 8 14 14 11 11 11 10 12 17 22 26 29 36 42 43 44
18 16 16 14 14 15 16 15 14 14 14 13 11 9 10 12 11 10 5 4 6 4 4 8 12 14 18 22 25 21 13 18 31 33 26 22 22 16 11 10 8 11 17 16 12 8 12 10 10 10 11 13 14 11 13 12 7 7 7 11 9 5 5 3 2 1 2 3 1 2 8 8 4 9 10 7 7 8 6 7 13 17 19 22 31 39 39 38
18 16 16 14 13 15 15 13 13 15 15 13 12 11 12 13 11 6 2 4 6 6 6 8 10 5 8 18 27 21 6 11 25 34 37 30 23 19 12 9 7 10 11 8 7 6 8 14 13 12 13 11 12 11 12 14 10 5 5 10 12 10 10 9 6 6 4 3 2 5 6 8 9 8 7 8 6 9 8 7 10 13 16 20 24 28 29 29
18 16 15 14 14 16 16 15 16 17 15 13 13 12 11 11 8 3 1 4 4 3 3 5 7 3 4 13 27 25 8 7 12 23 41 38 26 18 11 12 13 11 10 9 8 4 7 16 17 16 14 11 12 11 11 15 10 2 6 7 10 11 11 10 7 6 3 3 6 9 7 6 10 6 7 8 11 14 12 11 10 12 17 22 26 27 28 30
18 16 15 15 16 17 16 17 18 16 14 12 12 11 10 8 4 1 3 5 3 1 3 3 5 4 5 11 24 26 11 5 4 11 30 32 28 23 10 12 16 13 11 10 11 6 3 12 18 18 14 12 14 11 14 17 8 3 7 6 5 6 6 7 6 5 3 3 10 10 11 7 11 5 8 7 9 11 10 9 11 14 17 23 28 29 29 30
18 16 15 15 17 18 17 18 18 15 13 11 9 9 8 4 1 1 6 4 3 1 4 4 3 3 6 9 14 21 15 6 1 4 19 22 26 27 11 8 10 7 8 8 11 12 6 5 11 14 14 13 14 11 14 15 9 9 8 7 6 4 4 4 4 4 4 7 13 12 14 10 10 5 7 6 6 8 7 7 10 13 16 22 27 28 28 28
17 16 15 16 18 17 17 18 15 11 9 7 6 6 4 1 2 4 6 2 4 1 3 1 2 2 7 9 9 14 14 10 1 4 11 12 16 20 10 6 5 3 6 6 8 13 10 6 5 6 11 10 8 7 8 10 12 11 6 6 5 3 4 3 4 5 7 8 9 10 14 13 11 6 3 4 6 9 9 9 11 11 14 21 25 25 25 25
16 15 16 17 19 19 18 18 14 10 7 5 3 2 1 1 4 6 3 3 3 0 2 3 2 3 4 8 7 9 11 10 5 5 8 8 9 11 11 10 8 6 7 7 8 10 10 9 5 2 6 12 11 7 6 7 11 10 8 8 7 5 5 6 6 7 8 8 4 8 11 11 12 13 10 7 6 8 9 9 11 12 13 18 22 20 19 19
17 15 16 16 19 20 19 18 15 12 9 5 3 1 1 3 4 5 4 1 2 2 2 3 2 4 2 3 5 5 8 9 8 6 8 10 8 9 14 15 13 9 6 6 8 8 6 7 10 6 6 15 17 10 8 7 10 13 11 10 10 8 7 9 7 6 8 9 5 7 5 5 8 12 13 15 13 12 14 14 16 17 15 16 18 16 16 16
18 16 16 16 19 21 20 18 15 14 11 7 5 2 4 7 4 2 4 5 3 2 1 2 3 3 1 2 2 1 3 6 6 7 7 8 8 8 11 15 16 12 6 6 8 8 9 7 11 12 8 16 20 14 11 10 11 14 11 11 12 8 8 8 7 8 7 4 5 8 4 5 7 2 0 5 5 7 12 14 16 19 19 18 18 17 18 20
19 18 16 16 19 21 21 20 18 16 13 10 7 4 7 7 4 2 3 4 3 4 4 4 3 4 3 4 3 4 5 5 5 7 8 8 9 9 9 10 16 14 8 8 6 7 13 9 10 15 11 15 19 16 13 12 9 12 10 11 13 10 9 6 3 4 3 2 3 7 5 6 7 2 2 2 1 1 5 8 12 19 23 23 22 24 25 26
22 19 17 18 20 20 21 22 21 19 16 13 6 6 8 6 3 2 2 2 1 1 4 6 4 4 4 3 2 4 7 5 4 6 6 9 11 11 11 9 13 17 12 10 5 5 10 8 10 16 10 12 18 17 17 16 9 6 9 11 6 4 7 8 4 1 1 6 5 6 7 9 8 9 9 9 6 4 4 5 9 15 22 22 23 30 32 30
23 21 20 20 19 18 20 22 22 23 21 15 7 7 6 5 5 5 2 2 1 1 2 5 3 2 3 2 1 3 6 4 4 4 3 6 8 10 13 11 12 17 17 14 9 6 7 7 7 13 12 14 19 16 13 17 14 7 9 12 4 2 3 6 8 4 4 8 6 8 13 12 8 7 7 11 13 10 9 8 7 9 14 16 23 32 31 28
24 23 22 18 14 12 15 19 23 27 23 12 10 12 7 4 8 8 6 3 3 2 1 3 3 1 2 2 2 1 4 3 3 3 3 3 4 9 14 13 12 17 21 21 12 4 4 7 4 10 13 11 12 10 6 12 14 4 5 12 7 2 6 8 10 8 8 10 8 11 15 12 11 8 3 9 13 12 12 12 8 8 10 14 22 29 28 25
22 17 17 16 13 12 13 16 25 29 19 8 12 12 5 5 10 11 9 7 3 2 3 5 4 2 3 3 2 2 1 2 1 2 3 2 3 6 10 11 11 15 21 22 13 4 4 8 7 8 10 5 5 7 5 8 11 6 3 8 6 3 6 9 10 7 9 12 9 10 13 10 11 11 9 9 9 8 9 10 10 13 15 19 24 26 25 23
20 11 11 13 14 14 12 15 26 23 10 6 9 7 2 4 8 13 16 12 5 4 6 5 4 4 3 2 2 2 2 2 2 2 2 2 4 4 5 8 9 13 19 19 13 9 6 7 8 5 6 5 4 7 10 11 12 7 4 6 6 3 2 5 9 7 8 10 9 10 11 8 5 6 11 14 10 10 11 10 9 12 17 24 27 26 23 20
17 7 8 13 18 15 8 17 17 9 4 6 6 5 4 4 4 9 15 16 11 8 6 6 7 6 3 2 3 3 3 3 3 3 3 3 4 3 3 3 5 6 11 13 11 10 7 6 9 7 4 7 7 7 11 12 10 10 8 8 10 8 5 6 10 8 6 8 9 10 10 8 3 4 8 11 11 12 14 12 9 11 17 25 28 27 24 21
11 6 12 19 21 13 13 14 6 4 6 6 6 5 5 6 6 6 9 12 11 9 6 6 9 8 5 4 3 2 3 4 5 5 5 5 7 6 3 1 5 6 3 7 11 11 7 4 9 10 7 9 9 5 3 5 6 8 7 8 11 11 10 10 11 9 8 9 9 8 11 9 3 3 5 7 9 10 11 12 10 11 18 24 26 25 24 24
9 14 21 21 17 11 15 9 3 7 6 4 4 6 7 6 5 6 8 9 8 5 5 4 6 9 8 5 3 2 3 6 7 8 8 7 9 12 10 9 8 1 3 6 9 8 5 2 8 10 8 8 9 4 2 3 3 7 7 6 9 11 13 12 8 7 9 10 9 8 12 11 3 4 4 4 5 5 6 10 11 11 16 22 22 22 23 23
15 20 20 14 9 13 13 5 4 8 8 6 4 7 9 7 6 7 9 10 8 5 5 5 5 7 8 4 4 4 4 5 7 9 10 8 7 10 15 17 13 6 4 4 4 2 2 4 8 9 8 7 7 6 6 4 3 5 7 7 9 11 13 9 3 4 8 11 14 12 11 8 3 5 4 3 5 5 5 10 14 14 17 21 21 20 22 23
15 13 11 8 13 21 15 5 3 4 7 9 9 9 9 6 9 14 12 11 11 8 6 7 7 7 6 4 5 6 5 5 6 6 7 6 4 4 11 19 16 10 11 14 10 3 4 4 8 9 10 10 9 8 8 8 6 5 5 7 8 11 14 9 3 6 8 9 14 13 10 9 6 5 5 4 6 7 7 10 14 17 20 21 21 21 22 23
8 5 5 5 11 19 15 7 4 3 4 8 8 7 9 7 7 13 14 12 13 14 11 8 6 6 5 6 7 7 8 8 8 6 6 7 5 2 6 13 14 13 15 19 14 5 2 4 8 11 12 13 12 9 5 6 8 8 8 10 11 13 15 10 7 7 4 5 11 12 12 15 14 10 7 7 8 9 9 9 11 17 23 24 23 23 22 22
5 3 3 4 4 9 10 9 7 5 5 5 3 2 8 10 5 6 12 13 13 16 14 9 7 7 7 9 9 10 11 11 11 12 11 9 7 4 3 6 9 14 14 13 12 7 1 5 8 12 14 15 15 13 8 7 10 11 13 16 16 16 15 14 12 10 7 7 11 12 15 19 19 17 11 8 9 8 7 8 10 14 21 24 23 22 22 22
4 4 5 6 3 3 4 7 8 9 10 9 4 2 6 9 7 6 10 10 11 13 11 9 11 13 13 13 11 11 12 11 12 13 11 9 8 8 7 5 8 13 11 7 8 6 3 7 9 9 13 14 14 15 13 11 11 12 13 16 18 18 18 18 17 16 15 14 11 13 19 20 18 19 16 10 10 9 8 11 13 12 15 19 20 21 23 24
5 5 7 7 5 6 10 13 12 11 12 11 6 5 9 11 11 10 8 5 7 12 12 11 13 15 16 16 12 13 14 12 11 9 7 9 10 7 7 6 7 9 7 4 5 6 4 8 10 10 11 13 13 12 12 12 13 13 14 16 17 18 20 19 17 18 20 18 14 15 18 16 14 16 16 12 9 10 13 15 14 13 15 18 20 22 23 24
5 6 8 8 8 11 15 14 11 9 9 10 8 7 9 13 15 13 7 8 7 8 13 18 18 14 14 15 15 19 19 15 12 10 7 8 9 6 6 6 3 2 3 3 3 4 5 8 10 8 9 12 13 11 11 11 11 13 15 16 17 18 16 15 16 17 17 16 16 19 19 15 13 14 16 17 13 10 12 14 14 17 22 23 25 26 25 26
9 10 12 10 7 8 10 9 8 7 6 7 8 7 8 13 16 13 9 14 16 9 11 19 19 13 12 14 18 24 23 17 17 17 12 11 11 7 6 5 3 2 2 3 3 2 4 6 6 4 6 10 10 11 12 12 12 14 14 13 14 13 12 13 14 15 17 17 18 20 18 13 11 13 17 21 20 12 10 12 15 23 30 31 30 30 30 30
12 12 13 12 6 5 8 8 6 7 6 6 8 10 12 14 14 13 11 13 21 22 21 20 14 10 11 14 20 27 25 21 23 24 20 21 21 13 9 7 6 4 4 4 3 3 3 4 5 5 7 11 11 11 11 10 9 10 11 13 14 13 14 15 12 14 17 17 15 15 14 12 14 16 17 19 21 16 13 16 20 25 30 33 33 34 34 34
Wind_Direction
319 317 317 316 313 309 305 304 303 302 300 298 296 292 290 285 281 278 276 275 274 277 281 284 288 293 299 301 303 303 303 306 305 303 303 302 298 293 290 287 284 282 282 285 289 294 295 289 277 257 244 229 226 223 214 218 212 202 215 228 229 218 204 193 199 198 237 231 178 175 195 201 188 186 196 205 207 209 212 210 214 216 219 221 215 220 229 209
318 316 315 314 313 310 306 303 302 301 300 299 298 295 292 288 284 280 279 278 275 275 278 280 283 287 293 296 301 304 304 305 304 304 304 301 296 299 301 296 289 282 279 276 277 282 289 290 277 239 218 215 217 211 206 206 202 207 224 230 230 221 199 198 218 212 231 269 191 178 198 208 200 176 186 199 197 197 208 211 215 221 221 222 222 225 229 215
318 316 314 312 311 310 307 304 301 299 298 298 297 296 295 292 289 283 281 280 279 277 277 278 279 283 287 292 298 302 307 308 304 302 298 293 308 335 336 326 307 287 279 272 266 267 271 283 281 218 205 215 207 198 201 198 202 214 221 236 235 213 209 223 230 225 228 274 220 186 198 211 214 174 184 203 194 192 207 206 204 217 220 219 220 220 223 216
322 317 314 312 310 309 307 304 302 299 297 295 295 295 294 293 291 288 284 281 281 279 277 278 278 280 282 288 294 299 310 312 302 293 259 138 63 13 350 346 337 307 284 271 263 263 261 270 279 199 200 216 198 197 207 198 197 198 207 239 248 170 225 229 221 228 226 245 254 190 190 210 213 189 190 197 192 198 213 212 207 214 216 215 215 216 218 215
328 323 317 313 311 310 307 304 302 300 296 294 294 293 291 291 291 290 288 284 283 281 280 279 278 279 279 283 289 297 310 313 289 176 155 138 57 7 353 346 348 331 299 276 261 259 256 257 250 177 198 216 190 202 216 203 200 203 219 246 345 157 230 233 221 232 224 230 238 193 198 207 197 199 204 206 209 208 209 214 215 218 218 215 218 220 219 217
330 327 322 317 313 311 309 306 303 300 297 294 292 292 291 289 288 288 288 286 283 282 283 281 280 279 277 279 282 288 289 270 136 135 157 159 329 341 349 351 356 351 324 284 258 247 245 229 205 183 196 217 202 208 208 197 208 230 231 237 259 215 238 289 252 234 220 217 216 208 222 207 196 213 217 219 225 221 206 216 219 222 222 217 223 225 221 218
329 327 324 320 315 311 309 308 306 303 300 296 293 293 291 289 287 285 285 285 282 280 281 282 283 279 276 274 274 278 264 247 221 174 212 265 301 317 325 332 352 358 345 301 265 234 223 203 201 187 189 213 212 215 206 188 210 233 242 225 224 230 240 264 287 233 211 210 220 225 240 219 213 224 223 228 234 231 213 212 215 221 221 219 225 223 219 220
330 326 323 320 316 312 308 308 307 305 303 300 296 293 291 289 286 284 282 282 280 277 276 279 282 281 276 269 271 276 263 252 239 234 260 278 290 297 292 294 311 334 342 325 285 231 212 202 202 185 200 221 192 204 201 201 215 229 241 235 224 239 242 249 258 237 216 226 240 242 247 234 227 244 253 241 235 229 221 213 210 214 214 217 221 218 215 217
332 328 323 319 316 312 309 307 306 305 304 302 298 293 289 287 285 284 281 278 278 276 273 274 277 279 274 268 271 270 262 260 255 253 266 275 287 294 288 285 281 298 338 342 317 240 215 207 206 195 220 228 191 198 191 211 220 221 235 239 234 244 248 247 243 235 230 237 243 243 247 243 241 260 259 243 238 234 227 226 222 217 214 215 218 218 218 217
334 330 325 320 316 314 310 307 306 305 304 301 298 293 289 287 285 283 281 277 276 275 272 269 269 273 271 265 263 258 256 262 257 246 258 271 290 317 320 293 255 243 313 340 338 273 224 214 210 205 232 228 204 204 178 206 228 202 244 248 241 248 257 252 243 233 238 241 234 240 251 248 232 242 243 232 235 237 235 234 230 227 226 221 222 224 224 221
333 330 327 321 318 315 312 310 307 305 303 301 298 295 292 288 284 282 281 278 274 274 271 266 265 265 265 260 250 243 244 239 214 216 248 286 296 313 333 321 243 228 264 306 323 307 235 216 205 202 218 206 197 200 202 221 252 322 282 256 237 247 250 243 242 226 223 238 229 237 264 256 216 225 239 225 226 236 239 240 238 237 236 232 230 228 228 226
330 329 327 323 320 317 315 313 309 306 303 302 300 296 294 289 285 281 278 277 274 271 269 264 260 260 263 258 248 244 240 230 222 236 257 272 288 304 318 323 277 242 258 277 287 303 249 208 200 206 214 192 183 178 215 224 236 255 257 252 230 236 244 231 228 218 205 224 202 194 272 252 222 231 238 227 228 240 245 247 244 242 241 239 238 234 232 229
326 327 327 323 321 318 316 314 311 309 304 302 301 297 294 290 286 282 277 275 273 270 267 263 257 257 262 258 253 251 248 240 237 244 254 263 283 297 294 291 314 292 270 267 267 279 260 203 196 216 228 214 203 179 193 176 201 219 218 249 240 242 244 215 205 196 208 225 182 168 257 247 228 231 231 227 233 239 244 247 245 244 243 241 241 241 239 236
320 323 324 322 321 318 317 316 313 311 306 303 301 298 295 291 288 284 279 274 273 272 268 262 257 256 260 258 257 255 251 249 247 246 250 257 268 277 270 265 282 301 292 268 257 263 260 212 199 216 229 228 233 228 191 126 185 206 199 235 234 240 222 168 183 182 205 219 182 189 250 252 240 227 215 221 231 232 237 242 241 241 241 241 241 241 242 241
316 318 320 320 319 317 316 316 313 311 308 305 302 299 294 290 287 284 281 275 270 270 268 264 259 257 262 264 264 261 255 250 247 243 244 252 257 257 257 263 273 285 285 266 254 257 245 209 201 213 222 224 226 217 207 181 189 190 206 220 212 229 211 150 177 190 210 210 179 196 247 253 248 246 217 211 223 225 234 240 240 239 238 241 244 243 243 242
312 314 316 316 316 317 315 315 315 312 309 306 304 300 294 291 288 284 282 278 270 267 267 264 257 255 263 269 266 262 255 249 247 243 239 241 245 241 240 253 262 265 269 264 255 249 220 193 196 210 215 215 213 211 203 205 207 194 216 222 189 212 234 214 177 199 221 215 186 207 237 251 241 247 230 216 217 219 232 239 239 240 240 241 244 246 246 246
308 310 312 313 314 314 314 315 314 313 311 307 303 300 295 292 290 286 282 278 273 269 266 262 259 257 257 262 263 254 247 248 249 247 242 236 234 236 240 246 252 253 256 253 238 212 192 183 186 204 209 214 209 199 205 216 210 189 206 228 205 212 228 218 167 176 217 222 214 216 233 251 248 216 194 207 213 213 229 240 240 241 244 245 246 248 250 250
306 307 307 310 312 312 314 313 313 315 311 306 304 303 298 294 291 287 280 277 276 273 268 258 252 260 256 249 251 248 245 251 250 245 241 237 236 240 242 243 249 246 233 228 216 185 179 188 198 210 207 209 203 196 210 219 199 183 186 206 212 214 228 228 197 126 183 212 225 223 230 247 254 251 240 234 218 212 230 244 246 245 248 251 252 252 253 254
307 304 305 307 309 311 312 311 314 313 308 306 307 307 305 302 296 289 282 274 263 257 260 238 221 228 257 260 263 253 246 246 247 241 235 232 232 232 234 236 237 229 219 216 203 183 179 186 199 214 213 206 201 204 212 216 180 193 187 199 210 209 223 230 210 120 190 217 224 229 234 243 254 258 252 245 231 226 240 249 253 250 248 249 251 253 254 255
309 303 303 305 307 309 309 311 313 308 307 311 313 314 316 318 310 298 288 265 249 243 244 239 228 233 248 269 309 317 257 236 230 231 228 226 221 217 218 220 220 220 217 217 201 183 185 199 211 215 217 208 203 208 217 351 21 207 197 210 223 221 221 215 195 148 184 243 231 229 241 247 255 262 260 248 224 221 238 243 250 250 248 247 247 252 256 257
312 305 303 304 305 306 307 309 307 304 308 312 315 317 314 316 305 302 312 286 271 262 252 252 251 248 252 259 267 288 308 265 237 232 228 223 214 207 205 203 209 217 214 214 211 187 192 217 226 220 220 205 195 205 221 240 243 220 212 218 228 227 226 153 177 163 142 253 248 235 252 250 252 264 267 255 221 220 236 236 243 248 250 251 248 252 259 263
314 306 304 304 303 305 304 303 302 301 308 311 311 307 299 301 294 290 306 294 282 280 268 262 261 257 257 258 256 262 277 282 263 249 236 224 214 204 194 194 206 216 210 206 205 200 207 226 231 223 210 168 173 200 217 224 222 225 220 223 231 219 217 220 205 195 181 239 259 257 265 259 253 259 266 265 249 236 239 240 243 248 254 257 254 254 259 264
312 307 305 303 302 305 300 296 298 299 305 307 305 305 303 305 302 295 293 283 283 281 271 266 261 257 255 253 250 249 252 257 260 254 239 224 216 210 199 194 208 219 209 196 202 209 215 234 234 219 193 169 188 200 206 217 222 225 220 221 230 179 183 236 200 186 218 239 280 291 274 266 257 256 261 264 260 248 241 244 247 250 254 259 260 260 259 261
310 306 302 302 303 300 295 295 299 300 303 305 308 312 308 300 297 299 291 273 278 275 270 267 259 254 252 252 248 239 237 239 240 248 243 227 217 216 214 205 207 218 213 206 212 219 225 237 204 195 184 184 204 200 197 210 220 224 223 226 229 164 182 291 98 190 240 234 260 285 280 269 241 234 245 254 252 244 239 240 244 247 251 257 260 262 261 260
306 303 299 301 301 296 294 297 298 299 302 308 318 322 312 304 293 289 287 273 266 267 276 268 250 251 249 245 243 230 228 232 231 239 242 231 221 219 225 216 212 217 214 212 214 225 230 211 142 179 187 192 206 203 201 206 218 228 224 225 225 158 162 50 60 328 304 241 212 222 270 275 217 214 229 239 240 236 228 228 236 244 247 250 255 259 261 261
303 299 296 295 296 294 294 297 296 298 304 309 321 323 317 320 310 292 275 277 271 237 251 232 223 244 234 221 219 212 218 232 232 235 238 238 229 221 227 216 214 225 216 214 215 230 231 192 153 179 192 198 209 212 203 195 216 239 209 202 202 170 181 174 124 196 261 263 167 176 256 275 236 214 211 208 238 239 214 212 230 240 242 242 248 254 258 260
299 295 293 290 289 288 286 290 290 293 301 305 314 316 316 321 326 328 290 281 272 209 187 197 199 199 201 205 197 188 206 226 223 231 231 233 227 217 231 222 216 232 214 205 216 213 203 191 179 185 195 206 216 221 203 189 215 240 147 169 185 186 202 206 204 213 236 295 281 211 235 274 271 243 190 178 228 241 220 210 218 227 236 239 245 251 256 261
297 290 288 285 280 277 277 281 283 289 296 303 314 314 318 326 328 357 248 283 287 189 154 194 200 180 196 197 184 185 210 181 189 224 223 225 222 209 228 231 228 235 207 197 220 201 183 200 195 189 198 212 221 224 190 186 214 223 119 154 182 188 199 203 204 219 240 306 262 222 194 255 272 233 168 191 230 239 229 222 226 227 232 241 249 255 260 264
295 287 283 280 275 272 273 276 277 286 295 303 315 312 318 328 332 36 240 266 283 190 104 151 201 210 176 172 187 202 218 158 157 220 209 213 219 212 223 234 233 245 227 216 228 227 196 206 199 190 198 213 221 208 171 184 207 138 119 108 135 166 185 196 198 210 203 224 253 226 176 222 274 223 165 192 226 233 227 222 234 238 235 242 250 255 259 262
296 285 279 273 270 269 271 273 275 284 293 298 307 309 314 318 33 280 244 257 331 182 132 130 182 212 169 159 197 215 220 220 341 173 184 194 209 211 220 235 228 247 247 240 242 246 257 211 191 194 206 214 215 190 171 185 168 130 130 106 105 120 142 182 195 200 206 231 249 224 177 206 270 246 181 188 196 204 213 217 229 237 239 245 250 253 257 261
300 284 274 265 264 267 268 272 278 285 288 289 297 305 310 277 175 244 242 286 358 128 112 106 186 185 180 179 203 212 217 231 218 148 182 184 197 202 204 218 205 219 245 243 251 254 251 214 176 201 209 195 184 171 171 176 151 144 155 140 140 150 151 177 192 196 217 241 243 201 182 208 245 249 192 165 168 184 210 225 225 229 234 244 252 256 258 262
306 285 272 263 261 262 260 266 276 279 279 278 278 289 305 256 228 235 247 8 346 197 35 356 66 89 203 216 218 200 205 218 191 181 198 189 196 200 202 209 194 201 232 227 236 249 243 217 184 193 200 182 177 173 174 173 170 183 191 180 195 205 195 209 204 200 224 245 222 166 190 219 243 257 257 233 203 196 216 228 228 232 233 239 247 252 256 264
312 293 278 265 259 260 258 263 270 266 263 249 220 175 189 244 238 215 205 239 320 49 34 336 40 54 11 280 262 211 207 212 187 191 208 197 201 209 215 219 208 213 229 218 228 240 240 211 185 190 203 192 192 188 179 178 188 200 199 197 209 208 212 221 212 210 232 241 210 164 199 243 255 267 256 237 230 216 218 220 223 232 235 236 241 247 259 268
317 306 291 271 261 261 256 255 257 254 247 216 177 155 209 235 250 191 185 213 262 334 337 341 338 311 308 241 262 125 218 240 206 202 211 196 201 212 217 221 215 218 227 221 229 228 236 231 179 183 189 186 197 205 185 166 182 200 201 208 215 212 219 225 214 217 228 241 190 172 189 221 219 261 221 227 254 233 224 222 226 239 245 245 249 254 261 264
324 313 295 277 265 260 255 248 243 243 230 190 169 204 216 230 256 251 234 240 276 302 297 318 323 293 278 228 213 152 189 241 226 210 214 202 210 213 208 215 213 212 215 219 226 219 238 249 174 183 191 181 197 210 181 157 184 202 196 207 216 214 219 230 234 216 223 303 194 186 222 235 228 279 99 145 354 267 231 223 228 244 249 250 257 258 256 257
325 318 301 287 274 265 259 246 236 235 217 182 179 228 220 231 234 210 273 281 257 310 310 301 276 260 263 227 218 187 187 212 219 213 223 213 218 221 214 211 204 205 208 211 216 210 234 246 174 181 202 193 200 204 178 168 181 195 199 208 212 216 221 232 247 118 160 259 224 184 230 250 261 274 242 218 226 213 208 211 215 238 248 251 256 256 254 253
326 325 311 297 287 278 263 243 234 228 207 184 204 230 211 230 229 218 282 356 340 313 313 298 288 284 280 241 246 189 171 200 215 199 220 216 222 228 224 221 206 204 208 214 229 232 237 254 175 171 203 209 205 208 195 192 189 168 198 199 154 32 240 232 240 209 190 244 231 196 224 236 238 254 228 209 217 215 214 213 202 226 244 249 248 249 251 252
328 325 313 309 311 297 268 246 233 217 198 187 226 230 208 199 206 210 234 267 304 336 307 264 265 323 303 270 301 170 169 206 207 194 225 211 211 217 215 221 216 208 211 215 226 243 236 257 215 178 203 205 192 203 232 228 221 233 214 188 157 167 198 200 227 225 214 234 241 226 234 237 229 233 201 191 204 211 220 222 220 232 238 242 247 249 252 253
331 324 309 318 328 316 297 258 224 204 189 196 229 227 209 198 205 209 228 242 258 286 264 249 233 243 267 264 315 356 187 241 275 257 250 207 227 226 209 217 217 210 213 214 219 233 218 240 235 191 190 174 166 198 209 223 234 282 285 190 173 205 208 202 211 218 225 232 243 241 236 235 231 232 227 211 193 187 210 214 218 232 234 238 248 254 254 254
334 320 294 319 333 325 302 238 207 190 182 220 226 220 179 200 218 220 229 233 218 226 246 236 218 229 250 259 281 271 243 253 255 268 257 224 278 289 220 223 230 218 213 210 217 227 213 227 239 210 172 173 186 201 199 200 204 215 227 197 188 199 226 226 217 216 229 232 238 245 242 240 232 215 219 224 215 202 209 209 208 223 230 235 244 252 255 254
336 315 285 314 328 317 243 198 191 183 204 235 234 235 206 202 212 213 225 232 232 238 249 244 242 244 240 238 250 235 225 236 219 221 241 229 254 266 202 229 285 263 222 210 213 219 212 219 229 230 207 204 209 204 208 217 206 196 200 192 190 193 198 222 223 217 224 230 233 246 254 252 224 175 201 215 218 214 213 214 212 216 226 233 239 246 253 254
334 298 295 308 314 292 202 184 192 200 213 229 233 234 217 215 223 216 223 234 239 245 251 253 251 249 248 250 250 223 219 242 231 222 237 226 224 232 203 236 309 331 313 238 222 209 206 231 232 234 234 223 224 215 220 268 260 233 227 205 196 194 196 215 223 213 211 225 235 253 263 259 220 154 193 204 210 213 210 211 216 221 228 235 239 244 254 259
320 297 303 310 307 251 195 190 222 204 218 249 238 233 224 216 218 215 219 225 231 233 226 244 253 246 246 236 212 203 219 238 232 225 241 245 238 243 242 238 246 305 19 273 239 198 172 209 231 241 250 233 230 245 304 341 297 260 260 237 219 208 204 216 231 228 220 214 216 238 253 254 220 156 183 190 197 209 206 210 219 231 239 244 247 251 256 259
314 299 300 305 273 214 194 205 230 214 227 236 236 236 224 220 220 212 210 210 209 208 221 233 236 235 240 222 197 214 213 223 225 221 232 245 245 245 240 233 225 183 154 228 240 207 194 195 208 231 247 234 223 232 241 232 216 244 243 232 236 231 225 232 267 260 237 211 208 224 242 248 210 154 148 141 180 203 207 211 216 226 239 245 247 249 252 255
317 299 297 282 222 201 194 208 245 241 238 232 242 238 218 223 228 222 221 217 211 212 229 233 219 215 225 215 217 224 213 226 238 225 225 236 239 230 226 227 221 196 197 208 208 241 274 215 201 216 225 228 227 222 221 216 211 224 231 232 236 232 232 238 242 239 233 211 215 228 243 252 229 167 137 144 198 211 205 211 219 223 231 236 239 243 246 251
313 284 311 304 221 209 215 242 273 291 260 240 247 233 218 231 232 219 221 224 219 220 232 240 224 216 217 214 232 242 225 226 235 235 231 230 231 212 202 215 216 211 218 216 204 192 304 251 233 233 229 232 240 238 212 197 205 205 205 218 227 225 226 231 233 234 227 223 231 230 239 253 247 223 181 160 197 218 208 207 217 221 226 231 236 241 244 247
299 266 322 328 249 232 245 260 266 275 283 268 255 210 218 226 225 206 211 219 219 218 231 242 222 223 234 225 237 247 233 223 228 237 241 233 238 260 228 204 212 217 222 218 198 177 253 266 256 258 254 251 256 263 250 219 220 219 211 213 218 218 219 224 233 237 232 236 240 231 232 245 250 246 230 182 188 214 216 213 217 221 227 231 236 241 244 245
288 294 308 309 293 249 266 280 277 275 280 277 258 250 253 236 222 210 208 220 223 210 218 237 220 221 234 233 241 251 241 232 231 234 240 241 246 264 261 244 234 227 220 204 192 186 237 259 248 253 262 262 267 275 274 260 249 243 231 224 220 214 213 220 228 231 232 238 244 240 237 242 250 253 250 223 198 200 214 226 229 231 234 237 241 243 244 243
290 300 298 299 297 286 288 290 288 279 272 269 252 244 260 251 238 229 203 196 229 210 207 233 230 215 220 225 234 246 241 235 237 235 231 237 241 249 258 257 246 232 214 187 196 195 217 254 248 243 254 258 256 260 266 264 260 258 253 246 239 229 220 221 225 229 234 241 248 251 253 256 260 263 267 264 233 205 217 232 234 238 244 246 246 245 245 246
300 315 313 306 289 278 277 273 273 278 271 267 259 239 247 253 250 247 211 185 215 205 200 229 238 219 214 217 222 238 238 233 247 254 232 231 235 225 240 254 244 220 205 199 226 209 207 240 246 239 252 256 246 241 244 246 249 255 257 255 256 254 244 236 235 234 236 241 242 248 258 261 261 267 275 275 261 221 213 225 230 237 243 245 245 244 246 249
295 308 316 310 288 275 276 264 260 276 275 265 264 254 256 257 252 257 244 215 215 204 195 221 232 223 221 220 221 237 241 232 245 254 247 254 258 234 224 234 189 156 221 225 233 213 213 251 258 239 254 258 243 233 238 238 237 242 247 248 249 254 255 251 246 241 241 241 236 237 245 246 244 249 257 262 260 239 205 204 218 231 237 239 240 241 244 248
303 310 316 309 288 269 281 278 269 273 272 267 272 266 263 264 257 261 263 225 214 218 220 224 224 216 226 226 225 237 241 235 244 252 251 260 265 255 240 230 199 197 226 210 201 193 191 247 273 252 254 261 252 240 242 246 241 235 231 229 228 230 236 241 245 248 249 249 244 239 240 241 242 242 246 254 258 250 222 207 213 226 234 238 241 241 242 245